Weather History for Riverside March, CA

Change the Weather History Date:

Saturday, November 16, 2013

  Actual Average Record
Temperature  
Mean Temperature 54 °F -  
Max Temperature 57 °F 69 °F 87 °F (2008)
Min Temperature 52 °F 42 °F 33 °F (2000)
Degree Days  
Heating Degree Days 10    
Growing Degree Days 4 (Base 50)    
Moisture  
Dew Point 49 °F    
Average Humidity 81    
Maximum Humidity 94    
Minimum Humidity 65    
Precipitation  
Precipitation 0.02 in - - ()
Sea Level Pressure  
Sea Level Pressure 29.84 in    
Wind  
Wind Speed 5 mph (SE)    
Max Wind Speed 8 mph    
Max Gust Speed -    
Visibility 10 miles    
Events Rain    
Averages and records for this station are not official NWS values.
T = Trace of Precipitation, MM = Missing Value Source: NWS Daily Summary

Daily Weather History Graph

Daily Weather History Graph

Search for Another Location

Airport:

Trip Planner

Search our weather history database for the weather conditions in past years. The results will help you decide how hot, cold, wet, or windy it might be!

Date:

Astronomy

Nov. 16, 2013 Rise Set
Actual Time 6:22 AM PST 4:44 PM PST
Civil Twilight 5:55 AM PST 5:11 PM PST
Nautical Twilight 5:25 AM PST 5:41 PM PST
Astronomical Twilight 4:56 AM PST 6:11 PM PST
Moon 4:21 PM PST (11/16) 5:25 AM PST (11/16)
Length of Visible Light 11h 15m
Length of Day
10h 22m
Waxing Gibbous, 99% of the Moon is Illuminated
Nov 16
Waxing Gibbous
Nov 17
Full
Nov 25
Last Quarter
Dec 2
New
Dec 9
First Quarter

Hourly Weather History & Observations

Time (PST) Temp. Dew Point Humidity Pressure Visibility Wind Dir Wind Speed Gust Speed Precip Events Conditions
12:58 AM 55.8 °F 50.4 °F 82% 29.75 in 10.0 mi SE 8.1 mph - N/A   Overcast
1:36 AM 55.4 °F 50.0 °F 82% 29.78 in 10.0 mi SSE 4.6 mph - N/A   Overcast
1:58 AM 55.6 °F 50.5 °F 83% 29.77 in 10.0 mi ESE 5.8 mph - N/A   Overcast
2:41 AM 55.4 °F 50.0 °F 82% 29.77 in 10.0 mi SE 8.1 mph - N/A   Mostly Cloudy
2:58 AM 55.4 °F 50.9 °F 85% 29.77 in 10.0 mi SE 2.3 mph - N/A   Overcast
3:36 AM 55.4 °F 51.8 °F 88% 29.78 in 10.0 mi SE 2.3 mph - N/A   Overcast
3:50 AM 53.6 °F 51.8 °F 94% 29.78 in 10.0 mi ESE 1.2 mph - N/A   Overcast
3:58 AM 54.3 °F 50.9 °F 88% 29.78 in 10.0 mi SSE 2.3 mph - N/A   Overcast
4:58 AM 52.7 °F 49.1 °F 88% 29.78 in 10.0 mi SSE 4.6 mph - N/A   Mostly Cloudy
5:58 AM 53.4 °F 49.5 °F 86% 29.79 in 10.0 mi East 2.3 mph - N/A   Overcast
6:07 AM 53.6 °F 50.0 °F 88% 29.80 in 7.0 mi ESE 3.5 mph - N/A Rain Light Rain
6:36 AM 53.6 °F 50.0 °F 88% 29.80 in 10.0 mi SE 4.6 mph - N/A   Mostly Cloudy
6:58 AM 54.0 °F 50.5 °F 88% 29.81 in 10.0 mi SE 3.5 mph - 0.00 in   Mostly Cloudy
7:41 AM 53.6 °F 51.8 °F 94% 29.84 in 10.0 mi SSE 3.5 mph - N/A   Light Drizzle
7:58 AM 54.1 °F 51.4 °F 91% 29.84 in 7.0 mi SSE 3.5 mph - 0.00 in   Light Drizzle
8:44 AM 55.4 °F 51.8 °F 88% 29.86 in 10.0 mi SSE 5.8 mph - N/A   Overcast
8:58 AM 55.0 °F 50.2 °F 84% 29.86 in 10.0 mi South 5.8 mph - 0.02 in   Overcast
9:56 AM 55.4 °F 48.2 °F 77% 29.87 in 10.0 mi SW 4.6 mph - N/A   Light Drizzle
9:58 AM 55.8 °F 48.0 °F 75% 29.87 in 10.0 mi WNW 5.8 mph - 0.00 in   Light Drizzle
10:29 AM 55.4 °F 51.8 °F 88% 29.88 in 10.0 mi NW 5.8 mph - N/A   Overcast
10:58 AM 55.2 °F 51.4 °F 87% 29.87 in 10.0 mi NNW 6.9 mph - 0.00 in   Overcast
11:58 AM 55.8 °F 50.7 °F 83% 29.85 in 10.0 mi NNW 8.1 mph - N/A   Overcast
12:58 PM 56.7 °F 49.3 °F 76% 29.83 in 10.0 mi NNE 4.6 mph - N/A   Overcast
1:58 PM 57.2 °F 48.0 °F 71% 29.83 in 10.0 mi Calm Calm - N/A   Overcast
2:58 PM 57.6 °F 47.3 °F 69% 29.84 in 10.0 mi Variable 2.3 mph - N/A   Overcast
3:58 PM 57.7 °F 45.9 °F 65% 29.84 in 10.0 mi North 2.3 mph - N/A   Overcast
4:58 PM 57.4 °F 45.9 °F 65% 29.85 in 10.0 mi NW 1.2 mph - N/A   Overcast
5:58 PM 56.8 °F 46.8 °F 69% 29.86 in 10.0 mi Calm Calm - N/A   Overcast
6:58 PM 55.9 °F 44.8 °F 66% 29.88 in 10.0 mi South 2.3 mph - N/A   Overcast
7:58 PM 55.2 °F 45.5 °F 70% 29.90 in 10.0 mi Calm Calm - N/A   Overcast
8:58 PM 54.9 °F 43.9 °F 66% 29.91 in 10.0 mi SE 3.5 mph - N/A   Overcast
9:58 PM 54.3 °F 45.7 °F 73% 29.92 in 10.0 mi SE 6.9 mph - N/A   Overcast
10:58 PM 53.6 °F 48.0 °F 81% 29.93 in 10.0 mi SE 5.8 mph - N/A   Overcast
11:03 PM 53.6 °F 48.2 °F 82% 29.94 in 10.0 mi SE 5.8 mph - N/A   Overcast
11:13 PM 53.6 °F 48.2 °F 82% 29.94 in 10.0 mi SE 5.8 mph - N/A   Overcast
11:39 PM 53.6 °F 48.2 °F 82% 29.95 in 10.0 mi SE 5.8 mph - N/A   Overcast
11:58 PM 53.6 °F 48.4 °F 82% 29.94 in 10.0 mi SE 4.6 mph - N/A   Overcast